QPF
0.00 0.00 0.00 0.00 0.00 0.00 0.00 0.00 0.00 0.00 0.00 0.00 0.00 0.00 0.00 0.00 0.00 0.00 0.00 0.00 0.00 0.00 0.00 0.00 0.00 0.00 0.00 0.00 0.00 0.00 0.00 0.00 0.00 0.00 0.00 0.00 0.00 0.00 0.00 0.00 0.00 0.00 0.00 0.00
0.00 0.00 0.00 0.00 0.00 0.00 0.00 0.00 0.00 0.00 0.00 0.00 0.00 0.00 0.00 0.00 0.00 0.00 0.00 0.00 0.00 0.00 0.00 0.00 0.00 0.00 0.00 0.00 0.00 0.00 0.00 0.00 0.00 0.00 0.00 0.00 0.00 0.00 0.00 0.00 0.00 0.00 0.00 0.00
0.00 0.00 0.00 0.00 0.00 0.00 0.00 0.00 0.00 0.00 0.00 0.00 0.00 0.00 0.00 0.00 0.00 0.00 0.00 0.00 0.00 0.00 0.00 0.00 0.00 0.00 0.00 0.00 0.00 0.00 0.00 0.00 0.00 0.00 0.00 0.00 0.00 0.00 0.00 0.00 0.00 0.00 0.00 0.00
0.00 0.00 0.00 0.00 0.00 0.00 0.00 0.00 0.00 0.00 0.00 0.00 0.00 0.00 0.00 0.00 0.00 0.00 0.00 0.00 0.00 0.00 0.00 0.00 0.00 0.00 0.00 0.00 0.00 0.00 0.00 0.00 0.00 0.00 0.00 0.00 0.00 0.00 0.00 0.00 0.00 0.00 0.00 0.00
0.00 0.00 0.00 0.00 0.00 0.00 0.00 0.00 0.00 0.00 0.00 0.00 0.00 0.00 0.00 0.00 0.00 0.00 0.00 0.00 0.00 0.00 0.00 0.00 0.00 0.00 0.00 0.00 0.00 0.00 0.00 0.00 0.00 0.00 0.00 0.00 0.00 0.00 0.00 0.00 0.00 0.00 0.00 0.00
0.00 0.00 0.00 0.00 0.00 0.00 0.00 0.00 0.00 0.00 0.01 0.01 0.00 0.00 0.00 0.00 0.00 0.00 0.00 0.00 0.00 0.00 0.00 0.00 0.00 0.00 0.00 0.00 0.00 0.00 0.00 0.00 0.00 0.00 0.00 0.00 0.00 0.00 0.00 0.00 0.00 0.00 0.00 0.00
0.00 0.00 0.00 0.00 0.00 0.00 0.00 0.00 0.01 0.01 0.01 0.00 0.00 0.00 0.00 0.00 0.00 0.00 0.00 0.00 0.00 0.00 0.00 0.00 0.00 0.00 0.00 0.00 0.00 0.00 0.00 0.00 0.00 0.00 0.00 0.00 0.00 0.00 0.00 0.00 0.00 0.00 0.00 0.00
0.00 0.00 0.00 0.00 0.00 0.00 0.00 0.00 0.01 0.02 0.00 0.00 0.00 0.00 0.00 0.00 0.00 0.00 0.00 0.00 0.00 0.00 0.00 0.00 0.00 0.00 0.00 0.00 0.00 0.00 0.00 0.00 0.00 0.00 0.00 0.00 0.00 0.00 0.00 0.00 0.00 0.00 0.00 0.00
0.00 0.00 0.00 0.00 0.00 0.00 0.00 0.00 0.00 0.00 0.00 0.00 0.00 0.00 0.00 0.00 0.00 0.00 0.00 0.00 0.00 0.00 0.00 0.00 0.00 0.00 0.00 0.00 0.00 0.00 0.00 0.00 0.00 0.00 0.00 0.00 0.00 0.00 0.00 0.00 0.00 0.00 0.00 0.00
0.00 0.00 0.00 0.00 0.00 0.00 0.00 0.00 0.00 0.00 0.00 0.00 0.00 0.01 0.00 0.00 0.00 0.00 0.00 0.00 0.00 0.00 0.00 0.00 0.00 0.00 0.00 0.00 0.00 0.00 0.00 0.00 0.00 0.00 0.00 0.00 0.00 0.00 0.00 0.00 0.00 0.00 0.00 0.00
0.00 0.00 0.00 0.00 0.00 0.00 0.00 0.00 0.00 0.00 0.00 0.00 0.01 0.03 0.01 0.00 0.00 0.00 0.00 0.00 0.00 0.00 0.00 0.00 0.00 0.00 0.00 0.00 0.00 0.00 0.00 0.00 0.00 0.00 0.00 0.00 0.00 0.00 0.00 0.00 0.00 0.00 0.00 0.00
0.00 0.00 0.00 0.00 0.00 0.00 0.00 0.00 0.00 0.01 0.00 0.00 0.00 0.01 0.01 0.00 0.00 0.00 0.00 0.00 0.00 0.00 0.00 0.00 0.00 0.00 0.00 0.00 0.00 0.00 0.00 0.00 0.00 0.00 0.00 0.00 0.00 0.00 0.00 0.00 0.00 0.00 0.00 0.00
0.00 0.00 0.00 0.00 0.00 0.00 0.00 0.00 0.00 0.01 0.01 0.00 0.00 0.02 0.01 0.00 0.00 0.00 0.00 0.00 0.00 0.00 0.00 0.00 0.00 0.00 0.01 0.01 0.01 0.01 0.00 0.00 0.00 0.00 0.00 0.00 0.00 0.00 0.00 0.00 0.00 0.00 0.00 0.00
0.00 0.00 0.00 0.00 0.01 0.00 0.00 0.00 0.00 0.01 0.00 0.00 0.00 0.00 0.00 0.00 0.00 0.00 0.00 0.00 0.00 0.00 0.00 0.00 0.00 0.00 0.00 0.02 0.07 0.08 0.04 0.01 0.00 0.00 0.00 0.00 0.00 0.00 0.00 0.00 0.00 0.00 0.00 0.00
0.00 0.00 0.00 0.00 0.00 0.00 0.00 0.00 0.00 0.01 0.01 0.01 0.00 0.00 0.00 0.01 0.01 0.01 0.00 0.00 0.00 0.00 0.00 0.00 0.00 0.00 0.00 0.00 0.00 0.04 0.09 0.07 0.04 0.04 0.02 0.02 0.00 0.02 0.01 0.00 0.00 0.00 0.00 0.00
0.00 0.00 0.00 0.00 0.00 0.00 0.00 0.00 0.01 0.00 0.00 0.00 0.00 0.00 0.00 0.01 0.01 0.01 0.00 0.00 0.00 0.00 0.00 0.00 0.00 0.00 0.00 0.00 0.00 0.00 0.00 0.03 0.06 0.06 0.09 0.05 0.03 0.01 0.00 0.00 0.01 0.01 0.00 0.00
0.00 0.00 0.00 0.00 0.00 0.00 0.00 0.00 0.00 0.00 0.00 0.00 0.00 0.00 0.00 0.00 0.00 0.00 0.00 0.00 0.00 0.00 0.00 0.00 0.00 0.00 0.00 0.00 0.00 0.00 0.00 0.00 0.00 0.00 0.09 0.09 0.04 0.03 0.04 0.07 0.04 0.02 0.01 0.03
0.00 0.00 0.00 0.00 0.00 0.00 0.00 0.00 0.00 0.00 0.00 0.00 0.00 0.01 0.00 0.00 0.00 0.00 0.00 0.00 0.00 0.00 0.00 0.00 0.00 0.00 0.00 0.00 0.00 0.00 0.00 0.00 0.00 0.00 0.00 0.02 0.04 0.04 0.07 0.05 0.04 0.03 0.03 0.04
0.00 0.00 0.00 0.00 0.00 0.00 0.00 0.00 0.00 0.00 0.00 0.00 0.00 0.00 0.00 0.00 0.00 0.00 0.00 0.00 0.00 0.00 0.00 0.00 0.00 0.00 0.00 0.00 0.00 0.00 0.00 0.00 0.00 0.00 0.00 0.00 0.00 0.02 0.02 0.03 0.05 0.08 0.09 0.04
0.00 0.00 0.00 0.00 0.00 0.00 0.00 0.00 0.00 0.00 0.00 0.00 0.00 0.00 0.00 0.00 0.00 0.00 0.00 0.00 0.00 0.00 0.00 0.00 0.00 0.00 0.00 0.00 0.00 0.00 0.00 0.00 0.00 0.00 0.00 0.00 0.00 0.00 0.00 0.00 0.01 0.06 0.08 0.02
0.01 0.00 0.00 0.00 0.00 0.00 0.00 0.00 0.00 0.00 0.00 0.00 0.00 0.00 0.00 0.00 0.00 0.00 0.00 0.00 0.00 0.00 0.00 0.00 0.00 0.00 0.00 0.00 0.00 0.00 0.00 0.00 0.00 0.00 0.00 0.00 0.00 0.00 0.00 0.00 0.01 0.01 0.03 0.07
0.01 0.00 0.00 0.01 0.01 0.00 0.00 0.00 0.01 0.00 0.00 0.00 0.00 0.00 0.00 0.00 0.00 0.00 0.00 0.00 0.00 0.00 0.00 0.00 0.00 0.00 0.00 0.00 0.00 0.00 0.00 0.00 0.00 0.00 0.00 0.00 0.00 0.00 0.00 0.00 0.00 0.01 0.03 0.04
0.01 0.00 0.01 0.00 0.01 0.05 0.05 0.02 0.01 0.01 0.02 0.02 0.01 0.00 0.00 0.00 0.00 0.00 0.00 0.00 0.00 0.00 0.00 0.00 0.00 0.00 0.00 0.00 0.00 0.00 0.00 0.00 0.00 0.00 0.00 0.00 0.00 0.00 0.00 0.00 0.00 0.00 0.02 0.03
0.01 0.01 0.01 0.04 0.04 0.01 0.03 0.01 0.00 0.00 0.01 0.01 0.01 0.00 0.00 0.00 0.00 0.00 0.00 0.00 0.00 0.00 0.00 0.00 0.00 0.00 0.00 0.00 0.00 0.00 0.00 0.00 0.00 0.00 0.00 0.00 0.00 0.00 0.00 0.00 0.00 0.00 0.00 0.01
0.02 0.01 0.01 0.02 0.01 0.01 0.01 0.01 0.00 0.00 0.00 0.00 0.00 0.00 0.00 0.00 0.00 0.00 0.00 0.00 0.00 0.00 0.00 0.00 0.00 0.00 0.00 0.00 0.00 0.00 0.00 0.00 0.00 0.00 0.00 0.00 0.00 0.00 0.00 0.00 0.00 0.00 0.00 0.00
0.00 0.00 0.00 0.00 0.00 0.00 0.00 0.00 0.00 0.00 0.00 0.00 0.00 0.00 0.00 0.00 0.00 0.00 0.00 0.00 0.00 0.00 0.00 0.00 0.00 0.00 0.00 0.00 0.00 0.00 0.00 0.00 0.00 0.00 0.00 0.00 0.00 0.00 0.00 0.00 0.00 0.00 0.00 0.00
MSLP
1006.57 1007.00 1007.09 1007.07 1007.06 1007.39 1007.43 1007.25 1006.92 1006.50 1006.22 1005.57 1005.11 1003.46 1002.62 1001.68 1001.27 1000.71 1000.73 1000.89 1001.04 1001.10 1001.47 1002.45 1003.57 1004.67 1005.61 1006.43 1007.04 1007.72 1008.27 1009.16 1009.84 1010.30 1010.73 1011.23 1011.36 1011.55 1011.75 1011.87 1012.17 1012.39 1012.97 1013.62
1007.27 1006.89 1007.00 1007.12 1007.18 1007.30 1007.46 1007.50 1007.07 1006.45 1006.26 1006.19 1005.29 1003.37 1002.34 1001.90 1001.41 1000.68 999.91 1000.07 1000.22 1000.91 1001.81 1002.66 1003.55 1004.48 1005.17 1005.90 1006.77 1007.41 1007.93 1008.67 1009.38 1009.87 1010.28 1010.68 1011.21 1011.66 1011.84 1012.06 1012.28 1012.54 1013.11 1013.60
1007.36 1006.86 1006.62 1007.15 1007.25 1007.42 1007.42 1007.43 1007.44 1007.08 1006.87 1006.80 1005.84 1003.79 1002.27 1000.89 1000.84 1000.04 999.48 998.99 999.26 999.79 1001.06 1002.32 1003.28 1003.81 1004.90 1005.63 1006.39 1006.91 1007.47 1008.23 1008.99 1009.62 1010.20 1010.74 1011.33 1011.62 1012.03 1012.34 1012.69 1012.96 1013.42 1013.76
1007.23 1006.69 1006.92 1006.99 1007.26 1007.46 1007.71 1007.49 1007.62 1007.75 1007.94 1007.73 1007.44 1005.26 1002.79 1001.56 1000.51 999.63 999.09 998.48 998.66 999.11 1000.15 1001.08 1002.48 1003.43 1004.05 1004.97 1005.98 1006.62 1007.10 1007.84 1008.65 1009.31 1009.81 1010.26 1010.68 1011.22 1011.64 1012.15 1012.73 1013.11 1013.45 1013.79
1006.78 1006.45 1006.67 1006.80 1007.02 1007.36 1008.06 1008.17 1008.61 1008.64 1008.65 1008.24 1007.69 1007.06 1000.87 1001.71 1000.26 998.87 998.15 997.93 997.80 998.12 999.15 1000.33 1001.05 1001.77 1003.18 1004.38 1005.45 1006.37 1006.92 1007.34 1008.16 1008.91 1009.37 1009.96 1010.47 1010.88 1011.22 1011.99 1012.50 1012.87 1013.33 1013.77
1006.82 1006.43 1006.54 1006.52 1007.20 1007.60 1008.41 1008.93 1009.26 1009.28 1009.18 1008.12 1005.67 1005.92 1000.34 1000.43 999.74 998.11 997.43 996.93 996.89 997.46 997.92 998.78 999.98 1001.66 1003.04 1004.24 1005.15 1006.10 1006.70 1007.03 1007.79 1008.45 1008.98 1009.54 1010.10 1010.52 1010.92 1011.69 1012.34 1012.72 1013.16 1013.67
1006.73 1006.36 1006.40 1006.64 1007.64 1008.38 1008.77 1009.87 1010.08 1009.35 1008.46 1005.69 1004.38 1004.31 1000.66 998.95 998.26 997.45 996.75 996.33 995.94 996.34 997.11 998.44 999.89 1001.33 1002.60 1003.55 1004.51 1005.50 1006.18 1006.56 1007.22 1007.92 1008.53 1009.08 1009.73 1010.34 1010.76 1011.10 1011.56 1012.26 1012.77 1013.23
1006.68 1006.41 1006.22 1006.32 1006.65 1007.77 1008.88 1009.72 1010.35 1008.65 1007.43 1005.52 1004.62 1001.90 999.99 998.12 997.02 996.54 996.38 995.93 994.96 995.59 996.39 997.42 998.68 999.99 1001.30 1002.68 1003.76 1004.73 1005.46 1006.07 1006.60 1007.23 1007.94 1008.54 1009.20 1009.86 1010.34 1010.72 1011.05 1011.56 1012.02 1012.38
1006.40 1006.21 1005.42 1005.57 1006.03 1006.69 1008.38 1009.43 1009.26 1009.21 1007.61 1006.30 1003.94 1001.23 999.36 998.51 998.15 997.84 996.00 995.91 995.11 995.02 996.12 997.00 998.29 999.36 1000.69 1001.94 1002.77 1003.57 1004.63 1005.37 1005.99 1006.62 1007.38 1008.02 1008.69 1009.23 1009.70 1010.22 1010.69 1011.16 1011.62 1012.03
1006.38 1006.36 1005.51 1005.15 1005.69 1006.40 1006.86 1008.42 1009.21 1009.02 1007.89 1006.15 1003.97 1002.42 1001.67 1000.37 1000.32 998.95 997.73 997.18 995.65 995.80 996.02 996.75 997.72 998.85 999.97 1000.81 1001.99 1003.31 1004.10 1004.59 1005.14 1005.80 1006.57 1007.23 1007.94 1008.69 1009.18 1009.63 1010.07 1010.55 1011.04 1011.54
1006.43 1006.85 1006.31 1005.59 1005.34 1005.89 1006.92 1008.05 1008.92 1008.85 1007.89 1006.49 1004.95 1003.65 1003.02 1002.28 1002.38 1000.59 999.68 998.33 997.00 996.78 997.03 997.41 997.76 998.42 999.58 1000.79 1001.75 1002.86 1003.76 1004.35 1004.95 1005.33 1005.82 1006.53 1007.22 1007.89 1008.51 1008.96 1009.43 1009.88 1010.38 1010.83
1006.86 1007.30 1007.03 1006.07 1005.06 1005.13 1005.71 1006.49 1007.61 1008.14 1007.52 1006.62 1005.68 1004.38 1003.40 1003.86 1003.49 1001.83 1000.92 1000.48 999.36 998.24 997.86 997.62 998.52 999.63 1000.66 1001.60 1002.00 1002.29 1003.13 1003.70 1004.24 1004.83 1005.50 1005.91 1006.46 1007.29 1007.74 1008.16 1008.69 1009.17 1009.56 1010.02
1007.27 1007.91 1007.85 1006.28 1005.75 1005.93 1006.69 1006.83 1007.24 1007.64 1007.48 1006.65 1006.22 1004.92 1003.83 1004.32 1004.13 1002.68 1002.17 1001.37 1000.70 999.78 999.23 999.62 1000.29 1001.09 1001.61 1002.22 1002.89 1003.59 1004.13 1004.70 1004.99 1004.79 1005.17 1005.74 1006.11 1006.56 1006.98 1007.32 1007.82 1008.37 1008.84 1009.26
1007.48 1008.13 1008.21 1008.13 1007.53 1007.75 1007.47 1007.37 1007.25 1007.38 1006.91 1006.23 1005.70 1004.95 1004.39 1004.68 1005.07 1004.04 1003.20 1002.78 1002.07 1000.97 1000.89 1001.27 1002.04 1002.52 1003.05 1003.50 1003.88 1004.09 1004.07 1003.97 1004.27 1004.75 1005.20 1005.15 1005.40 1005.55 1005.90 1006.34 1006.75 1007.21 1007.72 1008.13
1008.39 1008.69 1008.59 1008.24 1007.77 1007.32 1007.00 1006.69 1006.74 1006.84 1006.41 1006.00 1005.46 1005.03 1004.84 1004.55 1004.89 1004.60 1004.23 1003.40 1002.01 1001.99 1002.53 1002.55 1003.61 1004.32 1004.43 1004.73 1004.87 1004.76 1004.41 1003.94 1003.90 1004.24 1004.66 1004.88 1005.01 1005.05 1005.50 1005.67 1005.73 1006.13 1006.43 1006.76
1009.10 1009.29 1008.99 1008.50 1007.71 1007.02 1006.36 1005.80 1005.69 1006.22 1005.96 1005.50 1005.13 1005.06 1004.44 1004.56 1004.85 1004.92 1004.58 1003.46 1003.16 1003.23 1003.72 1004.65 1006.07 1005.87 1005.85 1006.22 1006.03 1005.98 1005.54 1004.97 1004.84 1004.57 1004.69 1005.02 1005.22 1005.58 1005.40 1005.21 1004.86 1005.27 1005.40 1005.60
1009.74 1010.04 1010.11 1009.06 1007.97 1006.99 1005.89 1004.33 1004.31 1004.99 1005.07 1005.18 1004.44 1003.78 1004.36 1004.60 1004.65 1004.57 1004.64 1004.67 1004.53 1004.84 1005.07 1006.06 1006.80 1007.60 1007.72 1007.84 1007.03 1006.61 1006.39 1006.27 1006.07 1006.17 1005.80 1005.44 1005.46 1005.07 1004.92 1005.00 1005.14 1004.87 1004.56 1005.05
1010.01 1010.51 1010.91 1010.22 1008.64 1007.06 1005.02 1003.73 1003.30 1003.54 1003.63 1003.55 1003.29 1003.44 1003.61 1004.92 1005.33 1004.95 1005.09 1005.04 1005.65 1006.08 1007.29 1008.18 1008.64 1008.35 1008.53 1008.81 1008.23 1008.05 1007.64 1007.18 1007.28 1007.37 1007.07 1006.73 1006.53 1006.21 1005.75 1005.28 1004.47 1004.07 1004.05 1004.11
1009.79 1010.30 1010.73 1010.54 1009.44 1007.47 1005.17 1003.82 1003.20 1002.85 1003.63 1003.12 1002.65 1003.76 1004.19 1004.67 1005.17 1006.70 1006.93 1006.95 1007.31 1007.94 1008.57 1009.36 1009.38 1009.50 1010.00 1009.62 1009.18 1008.93 1008.87 1008.77 1008.51 1008.41 1008.34 1008.08 1007.70 1007.08 1006.47 1005.94 1005.32 1004.46 1003.60 1003.23
1009.53 1010.12 1010.80 1010.73 1009.73 1008.00 1005.73 1004.24 1003.42 1003.02 1004.00 1003.98 1003.14 1003.95 1004.25 1004.55 1005.99 1008.24 1008.70 1008.69 1008.85 1009.23 1009.91 1010.04 1010.19 1010.50 1010.28 1010.16 1009.98 1009.65 1009.72 1009.54 1009.28 1009.43 1009.44 1009.18 1008.79 1008.19 1007.47 1006.85 1005.88 1005.05 1004.32 1002.78
1010.23 1010.63 1010.66 1010.62 1009.92 1008.16 1006.05 1005.24 1004.18 1004.84 1006.27 1005.60 1005.12 1005.06 1005.30 1006.17 1007.51 1008.84 1009.48 1010.00 1010.51 1010.61 1010.55 1010.69 1010.96 1011.28 1011.53 1011.28 1010.68 1010.33 1010.59 1010.53 1010.60 1010.24 1010.12 1009.97 1009.64 1009.02 1008.39 1007.66 1006.76 1005.63 1004.50 1003.58
1009.95 1010.38 1010.36 1010.26 1009.95 1008.89 1007.02 1005.89 1006.09 1006.43 1006.55 1006.69 1006.74 1007.16 1007.27 1008.24 1009.29 1010.23 1011.06 1011.68 1011.99 1012.27 1012.25 1012.17 1012.28 1012.49 1012.43 1012.37 1011.92 1011.50 1011.37 1011.43 1011.08 1010.95 1010.82 1010.74 1010.46 1009.82 1008.96 1008.22 1007.45 1006.57 1005.48 1004.46
1009.99 1009.66 1009.09 1008.93 1008.77 1008.92 1008.05 1007.70 1007.68 1007.70 1007.74 1008.20 1008.39 1008.83 1009.03 1009.36 1010.59 1011.36 1012.18 1012.98 1013.38 1013.66 1013.50 1013.72 1013.70 1013.78 1013.92 1013.55 1012.92 1012.64 1012.55 1012.10 1011.71 1011.61 1011.50 1011.46 1011.25 1010.80 1010.01 1009.08 1008.34 1007.60 1006.96 1006.21
1009.71 1009.15 1008.79 1008.72 1009.46 1009.31 1009.29 1009.29 1009.27 1009.33 1009.15 1009.46 1009.79 1010.11 1010.35 1010.75 1011.69 1012.70 1013.48 1013.62 1014.30 1014.40 1014.43 1014.61 1014.58 1014.54 1014.55 1014.25 1013.89 1013.63 1013.15 1012.57 1012.34 1012.33 1012.29 1012.31 1012.00 1011.70 1011.19 1010.45 1009.78 1009.12 1008.43 1008.14
1010.36 1009.65 1009.96 1009.87 1010.11 1010.31 1010.67 1010.93 1011.05 1011.46 1010.80 1011.32 1012.43 1012.08 1012.41 1012.46 1013.12 1013.31 1014.22 1014.99 1015.52 1015.66 1015.69 1015.52 1015.44 1015.39 1015.25 1015.06 1014.73 1014.36 1013.88 1013.36 1013.00 1013.13 1013.11 1013.02 1012.88 1012.65 1012.27 1011.63 1011.12 1010.73 1010.31 1009.76
1012.35 1011.86 1011.11 1011.74 1011.37 1011.26 1012.47 1012.46 1012.27 1012.93 1013.14 1013.45 1013.92 1014.82 1014.23 1014.07 1014.75 1015.40 1016.07 1016.47 1016.61 1016.95 1016.76 1016.35 1016.24 1016.09 1016.02 1015.74 1015.29 1015.02 1014.59 1014.22 1013.94 1013.81 1013.81 1013.81 1013.70 1013.67 1013.52 1013.14 1012.85 1012.36 1011.94 1011.49
Thickness
5611 5598 5597 5609 5613 5614 5615 5613 5613 5622 5634 5637 5633 5654 5670 5687 5690 5696 5695 5704 5708 5715 5717 5712 5703 5694 5684 5673 5669 5664 5661 5653 5647 5640 5633 5626 5622 5622 5620 5618 5615 5615 5616 5616
5593 5591 5601 5605 5607 5608 5607 5602 5604 5621 5630 5621 5627 5647 5668 5671 5678 5685 5699 5702 5707 5710 5705 5704 5697 5690 5684 5675 5667 5663 5660 5653 5647 5642 5636 5630 5625 5621 5619 5618 5616 5615 5615 5614
5579 5593 5600 5596 5595 5595 5596 5595 5598 5601 5608 5611 5615 5635 5657 5680 5682 5691 5696 5708 5712 5713 5704 5700 5693 5691 5683 5674 5667 5664 5660 5654 5647 5641 5634 5628 5622 5620 5617 5615 5613 5612 5610 5609
5578 5593 5591 5589 5588 5589 5580 5597 5594 5590 5582 5577 5590 5591 5636 5657 5667 5683 5697 5700 5705 5709 5708 5705 5696 5689 5686 5676 5667 5663 5660 5654 5647 5641 5635 5631 5626 5621 5617 5614 5610 5609 5607 5606
5576 5584 5581 5581 5582 5586 5579 5580 5574 5574 5568 5571 5578 5571 5644 5646 5654 5677 5696 5697 5704 5708 5709 5704 5701 5698 5689 5678 5667 5662 5659 5655 5648 5641 5636 5631 5627 5624 5621 5615 5611 5610 5607 5602
5572 5584 5582 5582 5578 5579 5571 5563 5559 5560 5556 5552 5593 5576 5630 5639 5652 5680 5695 5701 5707 5704 5712 5711 5705 5693 5683 5675 5665 5660 5657 5655 5649 5642 5637 5632 5628 5624 5621 5615 5610 5607 5603 5597
5567 5572 5579 5577 5563 5562 5557 5542 5540 5545 5548 5568 5599 5584 5622 5656 5668 5683 5692 5698 5709 5709 5711 5706 5698 5688 5681 5675 5667 5661 5659 5656 5651 5645 5639 5633 5627 5623 5618 5616 5613 5608 5604 5599
5548 5556 5568 5574 5568 5554 5544 5536 5533 5549 5552 5567 5588 5596 5614 5657 5677 5684 5692 5699 5715 5712 5713 5710 5703 5696 5687 5677 5669 5663 5661 5657 5653 5648 5641 5636 5629 5624 5621 5618 5616 5612 5608 5606
5549 5556 5578 5573 5571 5566 5542 5527 5538 5533 5546 5547 5575 5609 5641 5644 5646 5659 5686 5690 5703 5711 5708 5706 5701 5696 5687 5678 5673 5669 5663 5659 5655 5650 5644 5638 5633 5627 5623 5620 5618 5614 5610 5608
5554 5548 5568 5574 5570 5563 5554 5540 5534 5535 5542 5558 5579 5595 5594 5614 5620 5639 5657 5666 5688 5697 5703 5701 5700 5695 5690 5683 5675 5665 5662 5660 5658 5654 5648 5642 5635 5630 5626 5623 5619 5616 5613 5609
5549 5545 5548 5565 5565 5554 5547 5533 5527 5531 5539 5552 5568 5582 5592 5600 5601 5618 5632 5653 5671 5679 5683 5688 5695 5692 5688 5678 5671 5664 5659 5657 5654 5653 5650 5645 5639 5633 5628 5625 5621 5618 5615 5612
5541 5534 5533 5546 5567 5568 5562 5552 5539 5536 5549 5552 5560 5577 5587 5582 5586 5608 5627 5633 5644 5661 5672 5681 5679 5675 5670 5664 5664 5664 5659 5656 5653 5649 5646 5643 5640 5635 5631 5628 5624 5620 5617 5614
5532 5520 5519 5542 5555 5551 5541 5547 5544 5540 5540 5544 5547 5572 5578 5570 5578 5598 5606 5619 5630 5643 5652 5656 5656 5656 5657 5657 5653 5647 5644 5641 5641 5643 5641 5638 5636 5634 5631 5629 5625 5621 5618 5615
5526 5519 5520 5515 5528 5523 5526 5531 5534 5534 5539 5549 5549 5565 5573 5569 5566 5577 5591 5602 5615 5627 5633 5634 5634 5635 5637 5637 5636 5636 5639 5642 5641 5640 5636 5636 5636 5635 5633 5630 5628 5625 5621 5618
5512 5509 5518 5523 5529 5533 5534 5537 5532 5530 5537 5542 5553 5557 5562 5567 5566 5570 5574 5589 5608 5612 5612 5617 5615 5614 5617 5617 5619 5622 5628 5633 5635 5635 5633 5633 5631 5632 5627 5627 5628 5626 5624 5623
5500 5501 5509 5515 5528 5531 5533 5542 5540 5528 5531 5535 5549 5543 5561 5563 5561 5564 5570 5583 5595 5599 5598 5596 5587 5593 5595 5594 5598 5604 5611 5617 5620 5624 5623 5619 5619 5619 5622 5624 5627 5624 5624 5623
5489 5484 5482 5500 5518 5521 5523 5544 5546 5536 5538 5533 5541 5558 5556 5557 5563 5566 5567 5575 5578 5581 5586 5582 5576 5569 5570 5571 5581 5589 5595 5597 5599 5599 5604 5609 5611 5614 5617 5618 5616 5620 5624 5618
5478 5475 5469 5473 5499 5502 5535 5550 5554 5550 5551 5551 5558 5559 5561 5551 5553 5563 5567 5570 5566 5566 5558 5551 5549 5555 5556 5556 5563 5567 5571 5578 5578 5579 5583 5587 5588 5593 5598 5602 5613 5618 5617 5615
5471 5467 5453 5462 5480 5506 5529 5540 5544 5552 5541 5551 5563 5555 5550 5555 5552 5543 5545 5549 5547 5543 5538 5533 5535 5538 5535 5540 5546 5550 5550 5552 5558 5559 5562 5566 5569 5573 5579 5584 5590 5600 5609 5612
5467 5461 5452 5440 5465 5464 5517 5533 5547 5549 5527 5540 5553 5551 5553 5555 5543 5528 5526 5528 5527 5526 5520 5520 5523 5523 5527 5530 5534 5536 5536 5537 5540 5540 5541 5544 5549 5554 5561 5565 5573 5581 5586 5605
5441 5434 5448 5439 5440 5468 5511 5518 5534 5521 5511 5523 5531 5534 5536 5533 5528 5515 5511 5506 5503 5505 5509 5512 5512 5510 5509 5513 5520 5524 5521 5520 5520 5523 5523 5524 5528 5533 5539 5546 5554 5563 5572 5579
5457 5449 5441 5438 5440 5455 5493 5509 5510 5504 5505 5510 5514 5513 5512 5509 5503 5494 5486 5480 5481 5482 5488 5492 5494 5492 5492 5493 5497 5502 5503 5503 5507 5507 5507 5506 5508 5513 5520 5526 5532 5540 5548 5556
5451 5456 5460 5463 5462 5463 5477 5482 5487 5489 5491 5491 5492 5495 5493 5492 5482 5479 5473 5466 5463 5462 5464 5466 5469 5470 5468 5473 5479 5481 5482 5487 5492 5492 5491 5490 5492 5494 5499 5506 5509 5513 5518 5524
5444 5449 5467 5474 5459 5457 5459 5464 5468 5470 5477 5476 5476 5476 5477 5477 5467 5460 5455 5452 5447 5447 5449 5449 5450 5452 5453 5457 5461 5463 5468 5473 5475 5474 5474 5472 5474 5475 5477 5481 5485 5487 5490 5490
5444 5454 5451 5453 5449 5449 5445 5443 5445 5446 5455 5449 5442 5450 5452 5454 5447 5447 5440 5435 5432 5431 5432 5434 5435 5437 5440 5442 5444 5448 5452 5456 5459 5457 5456 5455 5454 5454 5455 5458 5459 5459 5459 5460
5416 5424 5435 5433 5426 5438 5425 5427 5431 5425 5424 5425 5422 5415 5424 5431 5428 5424 5419 5417 5416 5413 5416 5421 5422 5424 5425 5428 5431 5432 5436 5438 5440 5439 5437 5435 5434 5433 5431 5431 5429 5429 5429 5428